[[{"header":{"parameterUnit":"m.s-1","parameterCategory":1,"la1":30.2991,"la2":30.254,"lo1":-89.0895,"lo2":-89.0444,"dy":0.0017,"dx":0.0017,"nx":28,"ny":28,"refTime":"2026-03-03T09:00:00:Z","depth":0,"parameterNumber":2,"parameterNumberName":"U-component_of_WINDS"},"data":[0,0,0,0,0,0,0,0,0,0,0,0,0,0,0,0,0,0,0,0,0,0,0,0,0,0,0,0,0,0,0,0,0,0,0,0,0,0,0,0,0,0,0,0,0,0,0,0,0,0,0,0,0,0,0,0,0,0,-5.4697,-5.4698,0,-5.4788,-5.4789,-5.479,-5.4775,-5.4773,-5.4771,-5.477,-5.486,-5.4864,-5.4868,0,0,0,0,0,0,0,0,0,0,0,0,0,-5.4509,-5.4512,-5.4697,-5.4698,-5.4699,-5.4788,-5.4789,-5.4791,-5.4775,-5.4773,-5.4771,-5.4769,-5.4859,-5.4864,-5.4868,0,0,0,0,0,0,0,0,0,0,0,0,0,-5.4594,-5.4514,-5.4697,-5.4702,-5.4704,-5.4788,-5.479,-5.4791,-5.4775,-5.4773,-5.477,-5.4768,-5.4858,-5.4863,-5.4869,-5.4953,0,0,-5.4887,-5.4889,0,0,0,0,0,0,0,0,-5.459,-5.4601,-5.47,-5.4702,-5.4704,-5.4768,-5.4756,-5.4845,-5.4776,-5.4748,-5.477,-5.4767,-5.4831,-5.4839,-5.4861,-5.4957,-5.4961,-5.4887,-5.4891,-5.4893,-5.4895,0,0,0,0,0,0,0,-5.4584,-5.4597,-5.4733,-5.4702,-5.4704,-5.47,-5.471,-5.4773,-5.4802,-5.475,-5.4749,-5.4761,-5.4832,-5.4856,-5.4863,-5.4962,-5.4887,-5.4892,-5.4896,-5.4898,-5.5133,-5.5136,0,0,0,0,0,0,-5.4576,-5.4592,-5.473,-5.4736,-5.464,-5.4705,-5.4716,-5.475,-5.4801,-5.4807,-5.4762,-5.4759,-5.4847,-5.4857,-5.4866,-5.4968,-5.4893,-5.4899,-5.4902,-5.513,-5.5134,-5.5137,0,0,0,0,0,0,-5.4572,-5.4589,-5.4727,-5.4664,-5.4681,-5.4711,-5.4749,-5.4753,-5.4776,-5.481,-5.4815,-5.4782,-5.4845,-5.4858,-5.4932,-5.4971,-5.4901,-5.4907,-5.5127,-5.5131,-5.5135,-5.5172,0,0,0,0,0,0,-5.4567,-5.4587,-5.4619,-5.4665,-5.4685,-5.479,-5.4751,-5.4756,-5.4787,-5.4784,-5.483,-5.4835,-5.4845,-5.4923,-5.4938,-5.4978,-5.4911,-5.5124,-5.5129,-5.5134,-5.5167,-5.5177,-5.5185,0,0,0,0,0,-5.456,-5.4625,-5.4621,-5.4637,-5.4725,-5.4793,-5.4804,-5.4814,-5.479,-5.4822,-5.4845,-5.4833,-5.4965,-5.4931,-5.4947,-5.4989,-5.5121,-5.5128,-5.5134,-5.5163,-5.5175,-5.5184,0,0,0,0,0,0,-5.458,-5.463,-5.4627,-5.4708,-5.4747,-5.479,-5.483,-5.4826,-5.4871,-5.4866,-5.4877,-5.4888,-5.4963,-5.4984,-5.4945,-5.5074,-5.504,-5.505,-5.5057,-5.5068,-5.5077,-5.5068,-5.4916,0,0,0,0,0,-5.4595,-5.4646,-5.4687,-5.4755,-5.4775,-5.48,-5.4829,-5.4835,-5.4875,-5.489,-5.4918,-5.4956,-5.5007,-5.5039,-5.5087,-5.5172,-5.5181,-5.5209,-5.5218,-5.5225,-5.5232,-5.5279,-5.5292,-5.5157,-5.5157,-5.5157,0,0,-5.4623,-5.4657,-5.4688,-5.476,-5.479,-5.4843,-5.4813,-5.4869,-5.4908,-5.4898,-5.4969,-5.4992,-5.5036,-5.5116,-5.5152,-5.5136,-5.5273,-5.5233,-5.5238,-5.5242,-5.5287,-5.53,-5.5311,-5.5161,-5.516,-5.516,0,0,-5.4702,-5.4734,-5.4794,-5.4826,-5.4874,-5.4891,-5.4906,-5.4951,-5.4966,-5.5039,-5.5033,-5.508,-5.5166,-5.5198,-5.5226,-5.5323,-5.5314,-5.5339,-5.5383,-5.5429,-5.544,-5.5449,-5.5483,-5.5495,-5.5347,-5.5347,-5.5347,0,-5.4731,-5.4811,-5.4825,-5.4883,-5.4915,-5.4912,-5.4973,-5.5003,-5.5064,-5.5086,-5.5067,-5.5177,-5.5207,-5.5294,-5.5319,-5.5342,-5.5358,-5.5331,-5.5437,-5.5447,-5.5456,-5.5488,-5.5501,-5.5349,-5.5349,-5.5349,-5.5348,0,-5.4844,-5.49,-5.4943,-5.5004,-5.5041,-5.51,-5.5124,-5.516,-5.5164,-5.5183,-5.5258,-5.5294,-5.535,-5.5372,-5.5376,-5.5462,-5.545,-5.5435,-5.5399,-5.5471,-5.5501,-5.5514,-5.5353,-5.5352,-5.5351,-5.535,0,0,-5.4932,-5.5004,-5.502,-5.5048,-5.5103,-5.5146,-5.5207,-5.5263,-5.5294,-5.5337,-5.5388,-5.5464,-5.5451,-5.5482,-5.549,-5.5531,-5.5606,-5.5511,-5.5512,-5.5526,-5.5702,-5.5711,-5.5725,-5.5602,-5.5605,-5.5607,-5.5698,0,-5.5015,-5.5122,-5.5139,-5.5233,-5.5285,-5.5286,-5.5339,-5.5378,-5.5399,-5.5447,-5.547,-5.5523,-5.5503,-5.5522,-5.5563,-5.5588,-5.5641,-5.5582,-5.5648,-5.565,-5.5633,-5.5741,-5.575,-5.5834,-5.571,-5.5712,-5.5714,0,-5.5124,-5.5173,-5.5273,-5.5323,-5.5346,-5.5393,-5.5448,-5.5493,-5.5539,-5.5552,-5.559,-5.5594,-5.5657,-5.5623,-5.5711,-5.567,-5.5699,-5.5716,-5.572,-5.5724,-5.5683,-5.5746,-5.5862,-5.5873,-5.5733,-5.5731,-5.573,0,-5.5177,-5.5268,-5.534,-5.5364,-5.5425,-5.5459,-5.5486,-5.553,-5.5564,-5.5612,-5.5634,-5.5689,-5.5718,-5.5761,-5.578,-5.5754,-5.5867,-5.5834,-5.5878,-5.5878,-5.5898,-5.5896,-5.6018,-5.5922,-5.5922,-5.5922,-5.5921,0,-5.5266,-5.5326,-5.5364,-5.5408,-5.5477,-5.5497,-5.5564,-5.559,-5.5631,-5.5679,-5.5684,-5.573,-5.5754,-5.5804,-5.582,-5.589,-5.5904,-5.5915,-5.5918,-5.5913,-5.5911,-5.5929,-5.5923,-5.5925,-5.5924,-5.5924,-5.5923,0,-5.5333,-5.5362,-5.544,-5.5494,-5.5509,-5.5557,-5.5602,-5.5645,-5.5668,-5.573,-5.5746,-5.5782,-5.5841,-5.5866,-5.5939,-5.595,-5.6029,-5.6029,-5.6014,-5.6014,-5.6056,-5.6051,-5.6191,-5.621,-5.6104,-5.6105,-5.6106,0,-5.5386,-5.5433,-5.5493,-5.5527,-5.5556,-5.561,-5.5646,-5.567,-5.5707,-5.5765,-5.5801,-5.5861,-5.591,-5.6005,-5.6037,-5.6093,-5.6093,-5.6138,-5.61,-5.6095,-5.6091,-5.6087,-5.6091,-5.6143,-5.6145,-5.6145,-5.6146,0,-5.5476,-5.549,-5.5541,-5.56,-5.5643,-5.5689,-5.5734,-5.5762,-5.5793,-5.5835,-5.5896,-5.5935,-5.6011,-5.607,-5.6129,-5.6156,-5.6156,-5.6159,-5.6172,-5.6165,-5.6153,-5.6159,-5.603,-5.6154,-5.6153,-5.6153,-5.6152,-5.6152,-5.5537,-5.5579,-5.5629,-5.5688,-5.5725,-5.5769,-5.5812,-5.5843,-5.5895,-5.5959,-5.5971,-5.6036,-5.6084,-5.6164,-5.6195,-5.6247,-5.6235,-5.6254,-5.6258,-5.6261,-5.6263,-5.6149,-5.6258,-5.6257,-5.6257,-5.6257,-5.6257,0,-5.5626,-5.5659,-5.5713,-5.5778,-5.5825,-5.5825,-5.5876,-5.5914,-5.5973,-5.6019,-5.6068,-5.614,-5.6199,-5.6238,-5.6297,-5.6332,-5.6333,-5.6346,-5.6342,-5.6349,-5.6271,-5.6253,-5.6344,-5.6344,-5.6344,-5.6344,-5.6344,-5.6344,-5.5677,-5.5749,-5.5769,-5.5861,-5.5894,-5.5959,-5.5989,-5.6029,-5.6066,-5.6147,-5.6196,-5.6223,-5.6266,-5.633,-5.6384,-5.6394,-5.6415,-5.6428,-5.6437,-5.6363,-5.6354,-5.6345,-5.6328,-5.6433,-5.6433,-5.651,-5.6511,-5.6511]},{"header":{"parameterUnit":"m.s-1","parameterCategory":1,"la1":30.2991,"la2":30.254,"lo1":-89.0895,"lo2":-89.0444,"dy":0.0017,"dx":0.0017,"nx":28,"ny":28,"refTime":"2026-03-03T09:00:00:Z","depth":0,"parameterNumber":3,"parameterNumberName":"V-component_of_WINDS"},"data":[0,0,0,0,0,0,0,0,0,0,0,0,0,0,0,0,0,0,0,0,0,0,0,0,0,0,0,0,0,0,0,0,0,0,0,0,0,0,0,0,0,0,0,0,0,0,0,0,0,0,0,0,0,0,0,0,0,0,1.8677,1.8678,0,1.8774,1.8775,1.8777,1.8891,1.8893,1.8895,1.8897,1.8991,1.8991,1.8992,0,0,0,0,0,0,0,0,0,0,0,0,0,1.8586,1.8587,1.8677,1.8678,1.8679,1.8774,1.8776,1.8777,1.8891,1.8893,1.8895,1.8897,1.899,1.8991,1.8992,0,0,0,0,0,0,0,0,0,0,0,0,0,1.8649,1.8588,1.8676,1.8748,1.8755,1.8774,1.8776,1.8777,1.8891,1.8893,1.8896,1.8898,1.899,1.8991,1.8992,1.8947,0,0,1.8996,1.8997,0,0,0,0,0,0,0,0,1.8645,1.8652,1.8736,1.8743,1.8751,1.8824,1.8778,1.8834,1.889,1.8839,1.8897,1.89,1.8932,1.8939,1.8951,1.8952,1.8956,1.8996,1.8997,1.8998,1.8998,0,0,0,0,0,0,0,1.8641,1.8648,1.8715,1.8737,1.8746,1.8774,1.8786,1.8789,1.8869,1.8844,1.8852,1.8862,1.8937,1.8949,1.8954,1.8957,1.8996,1.8998,1.8998,1.8999,1.893,1.8928,0,0,0,0,0,0,1.8626,1.8644,1.8712,1.8718,1.8704,1.8773,1.8787,1.8797,1.887,1.8883,1.886,1.8867,1.8946,1.8952,1.8958,1.8912,1.8998,1.8999,1.9,1.8933,1.8929,1.8927,0,0,0,0,0,0,1.8624,1.8631,1.8708,1.8684,1.8695,1.8772,1.8783,1.8798,1.8811,1.8882,1.8897,1.8858,1.8948,1.8956,1.895,1.8917,1.9,1.9001,1.8936,1.8932,1.8928,1.8819,0,0,0,0,0,0,1.8621,1.863,1.8613,1.8682,1.8696,1.8699,1.8781,1.8798,1.8813,1.8824,1.8884,1.8897,1.8951,1.8948,1.8952,1.892,1.9002,1.8939,1.8934,1.8929,1.8826,1.8812,1.88,0,0,0,0,0,1.8617,1.8577,1.8612,1.8619,1.8678,1.8697,1.8705,1.877,1.881,1.8795,1.8841,1.8895,1.892,1.8946,1.8952,1.892,1.8941,1.8935,1.893,1.8832,1.8815,1.88,0,0,0,0,0,0,1.8498,1.8587,1.8627,1.8608,1.8645,1.8717,1.8699,1.8749,1.8773,1.8782,1.886,1.8872,1.8858,1.8889,1.8916,1.8882,1.8939,1.8934,1.8863,1.8847,1.8834,1.8827,1.9003,0,0,0,0,0,1.8471,1.848,1.8556,1.8532,1.8549,1.862,1.8631,1.8679,1.8719,1.8734,1.878,1.8816,1.8833,1.8842,1.886,1.8832,1.8847,1.8813,1.88,1.8789,1.8783,1.8773,1.876,1.8907,1.8908,1.8908,0,0,1.8412,1.8462,1.8462,1.851,1.8544,1.8552,1.8632,1.8636,1.8643,1.8734,1.8733,1.8768,1.8814,1.8797,1.8792,1.8822,1.8746,1.8781,1.8772,1.8773,1.8766,1.8752,1.8739,1.8903,1.8904,1.8905,0,0,1.831,1.8348,1.8334,1.8367,1.8419,1.8468,1.8464,1.853,1.8558,1.8559,1.8629,1.8637,1.8663,1.8694,1.8712,1.8627,1.8678,1.8631,1.8562,1.8552,1.854,1.853,1.8502,1.849,1.8625,1.8625,1.8625,0,1.823,1.8246,1.8319,1.8321,1.834,1.8427,1.8413,1.8442,1.8496,1.8507,1.8541,1.8579,1.8614,1.8608,1.8588,1.8599,1.8599,1.8624,1.8536,1.8527,1.8519,1.8492,1.8481,1.8619,1.862,1.862,1.8621,0,1.8146,1.8157,1.8139,1.8193,1.8211,1.8204,1.8276,1.8285,1.8332,1.8377,1.8378,1.8426,1.8457,1.8459,1.8503,1.846,1.8477,1.8522,1.8581,1.8498,1.8474,1.8464,1.861,1.8613,1.8614,1.8616,0,0,1.7969,1.8068,1.806,1.8087,1.8153,1.8162,1.816,1.8194,1.8201,1.8236,1.8238,1.826,1.8304,1.8325,1.8374,1.8365,1.8297,1.8412,1.8414,1.839,1.8255,1.8221,1.8208,1.8332,1.833,1.8329,1.8252,0,1.788,1.7884,1.7952,1.7937,1.7949,1.8033,1.8032,1.8072,1.8115,1.8131,1.8178,1.8194,1.8249,1.8263,1.8258,1.8306,1.8271,1.8313,1.8333,1.8333,1.832,1.8195,1.8159,1.8084,1.8243,1.8241,1.824,0,1.7775,1.7809,1.7796,1.7866,1.7873,1.7871,1.791,1.7924,1.7972,1.8004,1.803,1.8087,1.809,1.8146,1.8153,1.818,1.8193,1.8218,1.8217,1.8221,1.8281,1.8197,1.8061,1.805,1.8226,1.8227,1.8228,0,1.765,1.7691,1.769,1.771,1.7791,1.7788,1.7822,1.7873,1.789,1.7923,1.7936,1.7968,1.7985,1.8009,1.8073,1.8107,1.8073,1.8133,1.81,1.8098,1.8088,1.8088,1.7953,1.8095,1.8095,1.8096,1.8096,0,1.7543,1.7532,1.7635,1.7634,1.7625,1.7704,1.7692,1.7734,1.7779,1.7788,1.7862,1.7868,1.7952,1.7968,1.8018,1.8018,1.8024,1.8051,1.8064,1.8044,1.8041,1.8054,1.8061,1.8093,1.8093,1.8094,1.8094,0,1.74,1.7469,1.7474,1.7552,1.7571,1.7561,1.7628,1.7631,1.768,1.769,1.7697,1.7773,1.7797,1.7864,1.7902,1.7936,1.7921,1.7946,1.7906,1.7915,1.7878,1.7881,1.7747,1.7734,1.7883,1.7881,1.788,0,1.7328,1.7322,1.7401,1.7414,1.7445,1.7464,1.7483,1.7561,1.7578,1.7635,1.7631,1.766,1.7688,1.7721,1.778,1.7811,1.7838,1.7789,1.7842,1.7824,1.7839,1.7838,1.7839,1.7776,1.7774,1.7773,1.7771,0,1.7193,1.7228,1.7254,1.7293,1.7316,1.7349,1.7387,1.7393,1.748,1.7495,1.7522,1.7544,1.7586,1.7615,1.7656,1.769,1.7745,1.7754,1.7749,1.7728,1.7706,1.7719,1.7875,1.7757,1.7758,1.7759,1.776,1.7761,1.7084,1.7085,1.7142,1.7169,1.7207,1.7242,1.7249,1.7301,1.7325,1.7368,1.7412,1.7434,1.7485,1.7547,1.7577,1.7595,1.7624,1.7615,1.7613,1.761,1.7602,1.7703,1.7603,1.7603,1.7604,1.7604,1.7604,0,1.6954,1.6996,1.7021,1.7074,1.7096,1.7149,1.7195,1.721,1.7229,1.7273,1.7301,1.7332,1.7362,1.7424,1.746,1.7462,1.7489,1.7469,1.747,1.7477,1.7573,1.7575,1.7447,1.7447,1.7447,1.7447,1.7447,1.7447,1.6889,1.6894,1.6937,1.6961,1.7003,1.7027,1.7049,1.7082,1.7118,1.7151,1.7177,1.7219,1.7271,1.7312,1.7342,1.7359,1.7369,1.7341,1.7367,1.7455,1.747,1.7484,1.7487,1.7343,1.7342,1.727,1.727,1.7269]}]]